| time (UTC) | temp C | wind direction | speed KPH | gust KPH | rain 1hr cm | rain 24hr cm | rain mn cm | humidity % | barometer mb |
| 20260508021544 | 20 | 301 | 0.0 | 4.8 | 0.00 | 0.00 | 0.00 | 65 | 1014.0 |
| 20260508020038 | 21 | 327 | 0.0 | 6.4 | 0.00 | 0.00 | 0.00 | 64 | 1013.9 |
| 20260508014538 | 21 | 323 | 3.2 | 9.7 | 0.00 | 0.00 | 0.00 | 62 | 1013.9 |
| 20260508013043 | 22 | 265 | 3.2 | 9.7 | 0.00 | 0.00 | 0.00 | 61 | 1013.8 |
| 20260508011538 | 22 | 334 | 3.2 | 6.4 | 0.00 | 0.00 | 0.00 | 62 | 1013.7 |
| 20260508010048 | 23 | 0 | 1.6 | 6.4 | 0.00 | 0.00 | 0.00 | 61 | 1013.7 |
| 20260508004548 | 23 | 230 | 1.6 | 8.0 | 0.00 | 0.00 | 0.00 | 59 | 1013.6 |
| 20260508003051 | 24 | 320 | 1.6 | 9.7 | 0.00 | 0.00 | 0.00 | 58 | 1013.6 |
| 20260508001547 | 25 | 289 | 1.6 | 8.0 | 0.00 | 0.00 | 0.00 | 57 | 1013.6 |
| 20260508000052 | 25 | 333 | 1.6 | 6.4 | 0.00 | 0.00 | 0.00 | 57 | 1013.5 |
| 20260507234556 | 25 | 296 | 1.6 | 8.0 | 0.00 | 0.00 | 0.00 | 58 | 1013.6 |
| 20260507233111 | 25 | 250 | 1.6 | 11.3 | 0.00 | 0.00 | 0.00 | 56 | 1013.7 |
| 20260507231540 | 24 | 189 | 4.8 | 12.9 | 0.00 | 0.00 | 0.00 | 58 | 1013.6 |
| 20260507230050 | 23 | 188 | 6.4 | 14.5 | 0.00 | 0.00 | 0.00 | 58 | 1013.6 |
| 20260507224544 | 23 | 175 | 8.0 | 14.5 | 0.00 | 0.00 | 0.00 | 58 | 1013.6 |
| 20260507223056 | 23 | 143 | 6.4 | 16.1 | 0.00 | 0.00 | 0.00 | 60 | 1014.0 |
| 20260507221542 | 23 | 208 | 8.0 | 16.1 | 0.00 | 0.00 | 0.00 | 60 | 1014.0 |
| 20260507220040 | 23 | 208 | 6.4 | 16.1 | 0.00 | 0.00 | 0.00 | 61 | 1014.4 |
| 20260507214539 | 22 | 125 | 4.8 | 17.7 | 0.00 | 0.00 | 0.00 | 63 | 1014.6 |
| 20260507213045 | 22 | 227 | 6.4 | 16.1 | 0.00 | 0.00 | 0.00 | 63 | 1014.7 |
| 20260507211549 | 22 | 155 | 8.0 | 17.7 | 0.00 | 0.00 | 0.00 | 62 | 1014.9 |
| 20260507204544 | 22 | 134 | 9.7 | 16.1 | 0.00 | 0.00 | 0.00 | 64 | 1015.3 |
| 20260507203039 | 22 | 172 | 6.4 | 17.7 | 0.00 | 0.00 | 0.00 | 63 | 1015.4 |
| 20260507201545 | 22 | 109 | 3.2 | 14.5 | 0.00 | 0.00 | 0.00 | 63 | 1015.4 |
| 20260507200052 | 22 | 146 | 4.8 | 17.7 | 0.00 | 0.00 | 0.00 | 65 | 1015.7 |
| 20260507194548 | 22 | 192 | 4.8 | 14.5 | 0.00 | 0.00 | 0.00 | 65 | 1015.8 |
| 20260507193047 | 22 | 194 | 8.0 | 19.3 | 0.00 | 0.00 | 0.00 | 66 | 1015.8 |
| 20260507191547 | 22 | 148 | 4.8 | 14.5 | 0.00 | 0.00 | 0.00 | 64 | 1016.0 |
| 20260507190050 | 21 | 175 | 6.4 | 16.1 | 0.00 | 0.00 | 0.00 | 65 | 1016.1 |
| 20260507184545 | 22 | 244 | 4.8 | 19.3 | 0.00 | 0.00 | 0.00 | 65 | 1016.2 |
| 20260507183110 | 21 | 209 | 1.6 | 11.3 | 0.00 | 0.00 | 0.00 | 65 | 1016.1 |
| 20260507181551 | 21 | 221 | 4.8 | 12.9 | 0.00 | 0.00 | 0.00 | 66 | 1016.2 |
| 20260507180043 | 21 | 221 | 3.2 | 11.3 | 0.00 | 0.00 | 0.00 | 66 | 1016.2 |
| 20260507174543 | 21 | 165 | 4.8 | 12.9 | 0.00 | 0.00 | 0.00 | 66 | 1016.4 |
| 20260507173047 | 21 | 105 | 3.2 | 11.3 | 0.00 | 0.00 | 0.00 | 67 | 1016.5 |
| 20260507171538 | 21 | 188 | 1.6 | 12.9 | 0.00 | 0.00 | 0.00 | 69 | 1016.4 |
| 20260507170048 | 20 | 0 | 1.6 | 8.0 | 0.00 | 0.00 | 0.00 | 71 | 1016.3 |
| 20260507164603 | 20 | 0 | 3.2 | 8.0 | 0.00 | 0.00 | 0.00 | 73 | 1016.4 |
| 20260507163047 | 19 | 188 | 1.6 | 6.4 | 0.00 | 0.00 | 0.00 | 77 | 1016.7 |
| 20260507161551 | 18 | 217 | 0.0 | 6.4 | 0.00 | 0.00 | 0.00 | 80 | 1016.6 |
| 20260507160057 | 17 | 0 | 1.6 | 8.0 | 0.00 | 0.00 | 0.00 | 83 | 1016.8 |
| 20260507154549 | 17 | 0 | 1.6 | 8.0 | 0.00 | 0.00 | 0.00 | 85 | 1016.8 |
| 20260507153045 | 17 | 236 | 0.0 | 4.8 | 0.00 | 0.00 | 0.00 | 86 | 1016.8 |
| 20260507151546 | 16 | 176 | 0.0 | 4.8 | 0.00 | 0.00 | 0.00 | 87 | 1016.9 |
| 20260507150047 | 15 | 0 | 1.6 | 4.8 | 0.00 | 0.00 | 0.00 | 87 | 1016.9 |
| 20260507144539 | 15 | 0 | 0.0 | 3.2 | 0.00 | 0.00 | 0.00 | 87 | 1016.9 |
| 20260507143047 | 14 | 0 | 0.0 | 1.6 | 0.00 | 0.00 | 0.00 | 87 | 1016.7 |
| 20260507141544 | 13 | 0 | 0.0 | 1.6 | 0.00 | 0.00 | 0.00 | 87 | 1016.6 |
| 20260507140045 | 12 | 0 | 0.0 | 0.0 | 0.00 | 0.00 | 0.00 | 86 | 1016.6 |
| 20260507134541 | 12 | 0 | 0.0 | 0.0 | 0.00 | 0.00 | 0.00 | 86 | 1016.4 |
| 20260507133051 | 12 | 0 | 0.0 | 0.0 | 0.00 | 0.00 | 0.00 | 86 | 1016.2 |
| 20260507131540 | 11 | 0 | 0.0 | 0.0 | 0.00 | 0.00 | 0.00 | 86 | 1016.1 |
| 20260507130046 | 11 | 0 | 0.0 | 0.0 | 0.00 | 0.00 | 0.00 | 86 | 1016.0 |
| 20260507124551 | 12 | 0 | 0.0 | 0.0 | 0.00 | 0.00 | 0.00 | 85 | 1015.8 |
| 20260507123044 | 12 | 0 | 0.0 | 0.0 | 0.00 | 0.00 | 0.00 | 85 | 1015.9 |
| 20260507121538 | 12 | 0 | 0.0 | 0.0 | 0.00 | 0.00 | 0.00 | 85 | 1015.9 |
| 20260507120037 | 12 | 0 | 0.0 | 0.0 | 0.00 | 0.00 | 0.00 | 85 | 1016.0 |
| 20260507114603 | 12 | 0 | 0.0 | 0.0 | 0.00 | 0.00 | 0.00 | 85 | 1016.0 |
| 20260507113103 | 12 | 0 | 0.0 | 0.0 | 0.00 | 0.00 | 0.00 | 85 | 1016.0 |
| 20260507111545 | 12 | 0 | 0.0 | 0.0 | 0.00 | 0.00 | 0.00 | 85 | 1016.1 |
| 20260507110042 | 13 | 0 | 0.0 | 0.0 | 0.00 | 0.00 | 0.00 | 84 | 1016.2 |
| 20260507104542 | 13 | 0 | 0.0 | 0.0 | 0.00 | 0.00 | 0.00 | 84 | 1016.3 |
| 20260507103043 | 13 | 0 | 0.0 | 0.0 | 0.00 | 0.00 | 0.00 | 84 | 1016.3 |
| 20260507101547 | 13 | 0 | 0.0 | 0.0 | 0.00 | 0.00 | 0.00 | 84 | 1016.4 |
| 20260507100042 | 13 | 0 | 0.0 | 0.0 | 0.00 | 0.00 | 0.00 | 84 | 1016.3 |
| 20260507094541 | 13 | 0 | 0.0 | 0.0 | 0.00 | 0.00 | 0.00 | 84 | 1016.5 |
| 20260507093038 | 13 | 0 | 0.0 | 0.0 | 0.00 | 0.00 | 0.00 | 83 | 1016.6 |
| 20260507091544 | 13 | 0 | 0.0 | 0.0 | 0.00 | 0.00 | 0.00 | 83 | 1016.8 |
| 20260507090044 | 14 | 0 | 0.0 | 0.0 | 0.00 | 0.00 | 0.00 | 83 | 1016.9 |
| 20260507084546 | 14 | 0 | 0.0 | 0.0 | 0.00 | 0.00 | 0.00 | 82 | 1017.1 |
| 20260507083041 | 14 | 0 | 0.0 | 0.0 | 0.00 | 0.00 | 0.00 | 82 | 1017.0 |
| 20260507081553 | 15 | 0 | 0.0 | 0.0 | 0.00 | 0.00 | 0.00 | 82 | 1017.1 |
| 20260507080053 | 15 | 0 | 0.0 | 1.6 | 0.00 | 0.00 | 0.00 | 82 | 1017.2 |
| 20260507074549 | 15 | 0 | 0.0 | 3.2 | 0.00 | 0.00 | 0.00 | 81 | 1017.4 |
| 20260507073042 | 15 | 0 | 0.0 | 3.2 | 0.00 | 0.00 | 0.00 | 81 | 1017.4 |
| 20260507071539 | 15 | 0 | 0.0 | 0.0 | 0.00 | 0.00 | 0.00 | 80 | 1017.5 |
| 20260507070039 | 15 | 0 | 0.0 | 1.6 | 0.00 | 0.00 | 0.00 | 80 | 1017.5 |
| 20260507064539 | 15 | 0 | 0.0 | 3.2 | 0.00 | 0.00 | 0.00 | 80 | 1017.5 |
| 20260507063044 | 15 | 282 | 0.0 | 4.8 | 0.00 | 0.00 | 0.00 | 79 | 1017.5 |
| 20260507061542 | 15 | 0 | 0.0 | 4.8 | 0.00 | 0.00 | 0.00 | 79 | 1017.5 |
| 20260507060056 | 16 | 0 | 0.0 | 3.2 | 0.00 | 0.00 | 0.00 | 79 | 1017.7 |
| 20260507054544 | 16 | 0 | 0.0 | 4.8 | 0.00 | 0.00 | 0.00 | 78 | 1017.6 |
| 20260507053037 | 16 | 0 | 0.0 | 1.6 | 0.00 | 0.00 | 0.00 | 77 | 1017.7 |
| 20260507051544 | 16 | 0 | 0.0 | 4.8 | 0.00 | 0.00 | 0.00 | 77 | 1017.6 |
| 20260507050044 | 16 | 0 | 0.0 | 4.8 | 0.00 | 0.00 | 0.00 | 76 | 1017.5 |
| 20260507044601 | 16 | 302 | 1.6 | 6.4 | 0.00 | 0.00 | 0.00 | 75 | 1017.5 |
| 20260507043049 | 16 | 0 | 0.0 | 3.2 | 0.00 | 0.00 | 0.00 | 75 | 1017.3 |
| 20260507041554 | 17 | 0 | 0.0 | 4.8 | 0.00 | 0.00 | 0.00 | 74 | 1017.4 |
| 20260507040039 | 17 | 297 | 1.6 | 4.8 | 0.00 | 0.00 | 0.00 | 73 | 1017.3 |
| 20260507034542 | 17 | 313 | 1.6 | 6.4 | 0.00 | 0.00 | 0.00 | 72 | 1017.2 |
| 20260507033040 | 17 | 0 | 1.6 | 4.8 | 0.00 | 0.00 | 0.00 | 69 | 1017.1 |
| 20260507031548 | 17 | 329 | 1.6 | 11.3 | 0.00 | 0.00 | 0.00 | 69 | 1016.9 |
| 20260507030049 | 18 | 0 | 0.0 | 4.8 | 0.00 | 0.00 | 0.00 | 68 | 1016.7 |
| 20260507024550 | 18 | 296 | 0.0 | 6.4 | 0.00 | 0.00 | 0.00 | 68 | 1016.6 |
| 20260507023052 | 18 | 0 | 1.6 | 8.0 | 0.00 | 0.00 | 0.00 | 67 | 1016.5 |